Location: Colorado Springs
(38.8340°N, 104.8210°W)
Time: 22:47:50
(UTC-06:00)

N. Korean satellite - Pass Details

Date: 08 October 2017
Orbit: 459 x 517 km, 97.2° (Epoch: 20 October)

Event Time Altitude Azimuth Distance (km) Brightness Sun altitude
Rises 19:43:13 0° 193° (SSW) 2,578 10.4 -14.9°
Reaches altitude 10° 19:45:33 10° 207° (SSW) 1,690 9.6 -15.4°
Maximum altitude 19:48:36 25° 264° (W) 1,025 9.1 -16.0°
Drops below altitude 10° 19:51:38 10° 321° (NW) 1,674 9.9 -16.6°
Sets 19:53:57 0° 335° (NNW) 2,547 10.7 -17.0°
